This is the latest recevied weather packets stored in our database for station/object KG5RGN-13. If no packets are shown the sender has not sent any weather packets the latest 1 day(s).
| Time | Temp. | Humidity | Pressure | Rain* | Wind** | Luminosity | Snow |
|---|---|---|---|---|---|---|---|
| 1778032059 | 10.56° C | 100% | 0 hPa | 0 mm | 4.92 m/s, 209° | - | - |
| 1778031759 | 10.56° C | 100% | 0 hPa | 0 mm | 4.02 m/s, 247° | - | - |
| 1778031459 | 11.11° C | 100% | 0 hPa | 0 mm | 1.79 m/s, 244° | - | - |
| 1778031159 | 11.11° C | 100% | 0 hPa | 0 mm | 3.58 m/s, 199° | - | - |
| 1778030859 | 11.11° C | 100% | 0 hPa | 0 mm | 4.47 m/s, 178° | - | - |
| 1778030559 | 11.11° C | 100% | 0 hPa | 0 mm | 5.36 m/s, 217° | - | - |
| 1778030259 | 11.67° C | 100% | 0 hPa | 0 mm | 6.71 m/s, 184° | - | - |
| 1778029959 | 11.67° C | 100% | 0 hPa | 0 mm | 5.36 m/s, 177° | - | - |
| 1778029659 | 12.22° C | 100% | 0 hPa | 0 mm | 8.49 m/s, 194° | - | - |
| 1778029359 | 12.22° C | 100% | 0 hPa | 0 mm | 6.26 m/s, 206° | - | - |
| 1778029059 | 11.67° C | 100% | 0 hPa | 0 mm | 4.92 m/s, 157° | - | - |
| 1778028759 | 12.78° C | 100% | 0 hPa | 0 mm | 4.02 m/s, 130° | - | - |
| 1778028459 | 12.22° C | 100% | 0 hPa | 0 mm | 4.92 m/s, 177° | - | - |
| 1778028159 | 12.78° C | 100% | 0 hPa | 0 mm | 4.92 m/s, 147° | - | - |
| 1778027859 | 11.67° C | 100% | 0 hPa | 0 mm | 6.71 m/s, 192° | - | - |
| 1778027559 | 12.78° C | 100% | 0 hPa | 0 mm | 4.02 m/s, 153° | - | - |
| 1778027259 | 12.22° C | 100% | 0 hPa | 0 mm | 5.36 m/s, 199° | - | - |
| 1778026959 | 11.67° C | 100% | 0 hPa | 0 mm | 5.81 m/s, 191° | - | - |
| 1778026659 | 12.22° C | 100% | 0 hPa | 0 mm | 3.58 m/s, 223° | - | - |
| 1778026359 | 12.78° C | 100% | 0 hPa | 0 mm | 5.36 m/s, 210° | - | - |
| 1778026059 | 12.78° C | 100% | 0 hPa | 0 mm | 12.52 m/s, 202° | - | - |
| 1778025759 | 12.78° C | 100% | 0 hPa | 0 mm | 3.58 m/s, 210° | - | - |
| 1778025459 | 12.78° C | 100% | 0 hPa | 0 mm | 5.36 m/s, 203° | - | - |
| 1778025159 | 13.33° C | 100% | 0 hPa | 0 mm | 7.6 m/s, 208° | - | - |
| 1778024859 | 15° C | 100% | 0 hPa | 0 mm | 4.92 m/s, 217° | - | - |
* Rain latest hour (hover to see other rain measurements)
** Current wind speed in m/s (hover to see current wind gust speed)